TITAN 3C TRANSTAGE DEB, 20672

Orbit data source: Space-Track

TITAN 3C TRANSTAGE DEB, 20672 is space debris in HEO originally from a launch on Tue, 21 Dec 1965 UTC launched from the Air Force Eastern Test Range (AFETR). Debris objects in space refer to the collection of defunct objects orbiting the Earth. Examples of debris include non-operational satellites, rocket bodies, and fragments generated from explosions, collisions, or faulty payload assembly.

Loading next visibility...
Identifier
20672, 1965-108AD
Orbit
HEO
Country
Flag of USUS
Related business
Manufacturer
Unknown
Mission
Spacecraft
Bus & Motor
Unknown
Mass
Unknown
Launch date (UTC)
1965-12-21 (60 years ago)
Launch vehicle
Unknown
Launch site
Air Force Eastern Test Range (AFETR)
Object type
Payload
Rocket body
Debris
Shape & HBR
Unknown
Radar Cross Section
Small (<0.1 m²)

Expand to show TLE details & history
Last TLE update: 1 day ago

TLE from 1 day ago
0 TITAN 3C TRANSTAGE DEB
1 20672U 65108AD  25241.53790830 -.00000170  00000-0 -82886-3 0  9991
2 20672  27.1781 333.0420 6796968 107.0794 280.7742  2.70046541 39639
Epoch: 2025-08-29T12:54Z
TLE epoch observation values (Epoch: 2025-08-29T12:54:35.277Z)
Latitude
-17.67719°
Longitude
123.12038°
Altitude
21,581.06 km
Speed
3.196 km/s
True Right ascension
19h 39m 00s
True Declination
-17° 39' 07"
Sunlit
Object was in daylight at epoch
Visualization orbit readout
Latitude
Unknown
Longitude
Unknown
Altitude
Unknown
Speed
Unknown
Apparent Right ascension
Unknown
Apparent Declination
Unknown
Sunlit
N/A
Visualization observer readout
Local Sidereal Time
15:58:59
Azimuth
Unknown
Elevation
Unknown
Doppler factor
Unknown
Orbital elements
Apogee altitude
30,215.938 km
Perigee altitude
600.027 km
Semi-major axis
21,786.119 km
Eccentricity
0.6797
Inclination
27.1781°
RAAN
333.042°
Arg. of periapsis
107.0794°
True anomaly
211.30559°
Mean anomaly
280.7742°
Eccentric anomaly
245.37282°
Mean motion
0.67495 °/min
Orbital period
533.37 mins
BSTAR
-0.00082886
Loading maneuver chart data...
Computing Atmospheric mass density...

Documentation

Showing up to 5 results
|